Weather Roundup
Issued by NWS

Home | Current Version | Previous Version | Text Only | Print | Product List | Glossary On
Versions: 1 2 3 4 5 6 7 8 9 10 11 12 13 14 15 16 17 18 19 20 21 22 23 24 25 26 27 28 29 30 31 32 33 34 35 36 37 38 39 40 41 42 43 44 45 46 47 48 49 50
000
NZUS93 KARX 171659
HRRWXR

CURRENT HOURLY OBSERVATIONS ACROSS
MUCH OF THE UPPER MISSISSIPPI VALLEY
NATIONAL WEATHER SERVICE LA CROSSE WI
1200 PM CDT WED SEP 17 2014


...SOUTHEAST MINNESOTA...


CITY           SKY/WX    TMP DP  RH WIND       PRES   REMARKS
ROCHESTER      NOT AVBL
ROCHESTER/MAYO NOT AVBL
WINONA         PTSUNNY   63  54  72 E3        29.98F
AUSTIN         SUNNY     64  52  63 SW5       29.98S
ALBERT LEA     NOT AVBL
DODGE CENTER   MOSUNNY   66  52  59 SW7       29.98S
PRESTON        SUNNY     63  56  76 SE5       30.00S
OWATONNA       MOSUNNY   66  52  59 SW3       29.97S
FARIBAULT      PTSUNNY   70  48  46 SE6       29.97S
$$

...ELSEWHERE IN MINNESOTA...


CITY           SKY/WX    TMP DP  RH WIND       PRES   REMARKS
MINNEAPOLIS    MOSUNNY   68  50  52 CALM      29.95F
INTNL FALLS    PTSUNNY   51  42  71 NE12      30.01R
DULUTH         NOT AVBL
RED WING       SUNNY     66  52  59 CALM      29.96S
REDWOOD FALLS  SUNNY     69  55  60 VRB5      29.94S
MANKATO        SUNNY     66  50  55 NW3       29.96S
WORTHINGTON    PTSUNNY   66  54  63 SW3       29.96R
FAIRMONT       SUNNY     68  50  52 CALM      29.96S
$$

...SOUTHWEST WISCONSIN...


CITY           SKY/WX    TMP DP  RH WIND       PRES   REMARKS
LA CROSSE      SUNNY     66  52  60 S8        29.99F
PRAIRIE DU CHI NOT AVBL
BOSCOBEL       NOT AVBL
LONE ROCK      NOT AVBL
PLATTEVILLE    PTSUNNY   64  48  55 CALM      30.02F
FORT MC COY    PTSUNNY   64  49  59 W5        30.00F
VIROQUA        FAIR      64  49  59 SW6       30.01S
WIS DELLS      MOSUNNY   64  46  51 SW7       30.00F
$$

...ELSEWHERE IN WISCONSIN...


CITY           SKY/WX    TMP DP  RH WIND       PRES   REMARKS
MILWAUKEE      MOSUNNY   65  43  44 CALM      30.01F
MADISON        NOT AVBL
GREEN BAY      SUNNY     67  48  50 W9        29.97F
EAU CLAIRE     NOT AVBL
BLACK RVR FLS  FAIR      64  49  59 SW6       29.98F
MEDFORD        MOSUNNY   62  49  62 W5        29.97F
WAUSAU         NOT AVBL
WIS RAPIDS     NOT AVBL
MARSHFIELD     NOT AVBL
RICE LAKE      SUNNY     64  50  60 W6        29.98S
$$

...NORTHEAST IOWA...


CITY           SKY/WX    TMP DP  RH WIND       PRES   REMARKS
WATERLOO       NOT AVBL
DUBUQUE        NOT AVBL
DECORAH        SUNNY     63  50  63 CALM      30.00S
MASON CITY     NOT AVBL
CHARLES CITY   SUNNY     64  52  63 VRB6      30.00S
OELWEIN        SUNNY     64  50  59 VRB3      30.00F
$$

...ELSEWHERE IN IOWA...


CITY           SKY/WX    TMP DP  RH WIND       PRES   REMARKS
DES MOINES     NOT AVBL
IOWA CITY      CLOUDY    63  55  75 S9        30.01F
FORT DODGE     SUNNY     66  55  68 CALM      29.97F
MARSHALLTOWN   NOT AVBL
CEDAR RAPIDS   MOSUNNY   65  55  70 S8        29.99F
$$

...NORTHERN ILLINOIS...


CITY           SKY/WX    TMP DP  RH WIND       PRES   REMARKS
CHICAGO-OHARE  MOSUNNY   66  44  45 SW7       30.03S
DUPAGE         CLOUDY    65  43  44 VRB3      30.03S
CHICAGO-MIDWAY MOSUNNY   68  46  45 SW6       30.03S
MOLINE         CLOUDY    65  52  62 S6        30.01F
ROCKFORD       NOT AVBL
STERLING       MOSUNNY   66  52  59 W6        30.03S
PEORIA         NOT AVBL
$$

NOTE: "FAIR" INDICATES FEW OR NO CLOUDS BELOW 12,000 FEET WITH NO
SIGNIFICANT WEATHER AND/OR OBSTRUCTIONS TO VISIBILITY. WIND
SPEEDS ARE IN MILES-PER-HOUR.



USA.gov is the U.S. government's official web portal to all federal, state and local government web resources and services.